This demonstration page uses our WeatherBlox Daily Observations layout. Learn more.

Left ArrowRight Arrow

40.97296, -117.73568

Hourly Observations for August 15, 2016

Temp ( °F °C ) Dew Point ( °F °C ) Humidity (%) Winds ( mph kmh ) Pressure ( in mb ) Visibility ( mi km ) Precip ( " mm )
12:56 am 00:56 Clear 79 26.1 32 0 18 18 WNW 12 19 29.85 1011 10 16 0.00 0.00
1:56 am 01:56 Partly Cloudy 77 25 34 1.1 21 21 W 8 13 29.85 1011 10 16 0.00 0.00
2:56 am 02:56 Partly Cloudy 77 25 33 0.6 20 20 W 8 13 29.89 1012 10 16 0.00 0.00
3:56 am 03:56 Mostly Clear 75 23.9 34 1.1 22 22 E 3 6 29.91 1013 10 16 0.00 0.00
4:56 am 04:56 Mostly Cloudy 74 23.3 34 1.1 23 23 WSW 10 17 29.90 1013 10 16 0.00 0.00
5:56 am 05:56 Mostly Cloudy 78 25.6 33 0.6 19 19 ENE 14 22 29.87 1011 10 16 0.00 0.00
6:56 am 06:56 Sunny 80 26.7 34 1.1 19 19 NE 8 13 29.87 1011 10 16 0.00 0.00
7:56 am 07:56 Sunny 74 23.3 35 1.7 24 24 S 6 9 29.92 1013 10 16 0.00 0.00
8:56 am 08:56 Sunny 83 28.3 34 1.1 17 17 W 15 24 29.93 1013 10 16 0.00 0.00
9:09 am 09:09 Sunny 83 28.3 34 1.1 17 17 W 13 20 29.74 1007 10 16 0.00 0.00
9:56 am 09:56 Sunny 86 30 35 1.7 16 16 W 10 17 29.93 1014 10 16 0.00 0.00
10:56 am 10:56 Sunny 88 31.1 35 1.7 15 15 W 12 19 29.91 1013 10 16 0.00 0.00
11:56 am 11:56 Sunny 91 32.8 35 1.7 14 14 WNW 9 15 29.90 1012 10 16 0.00 0.00
12:56 pm 12:56 Sunny 91 32.8 34 1.1 13 13 SSW 7 11 29.89 1012 10 16 0.00 0.00
1:56 pm 13:56 Sunny 93 33.9 33 0.6 12 12 undefined N/A 29.87 1012 10 16 0.00 0.00
2:56 pm 14:56 Sunny 94 34.4 32 0 11 11 VRB 7 11 29.85 1011 10 16 0.00 0.00
3:56 pm 15:56 Sunny 95 35 32 0 11 11 NW 8 13 29.84 1011 10 16 0.00 0.00
4:56 pm 16:56 Sunny 95 35 32 0 11 11 N 6 9 29.83 1010 10 16 0.00 0.00
5:56 pm 17:56 Sunny 93 33.9 31 -0.6 11 11 NW 6 9 29.82 1010 10 16 0.00 0.00
6:56 pm 18:56 Sunny 92 33.3 31 -0.6 11 11 NNW 6 9 29.83 1010 10 16 0.00 0.00
7:56 pm 19:56 Clear 81 27.2 33 0.6 18 18 NNW 6 9 29.86 1011 10 16 0.00 0.00
8:56 pm 20:56 Clear 71 21.7 29 -1.7 21 21 Calm 29.88 1012 10 16 0.00 0.00
9:56 pm 21:56 Clear 71 21.7 29 -1.7 21 21 W 9 15 29.88 1012 10 16 0.00 0.00
10:56 pm 22:56 Clear 66 18.9 27 -2.8 23 23 W 8 13 29.90 1012 10 16 0.00 0.00
11:56 pm 23:56 Clear 69 20.6 31 -0.6 24 24 E 5 7 29.89 1012 10 16 0.00 0.00

Powered by AerisWeather